AAL59 KMCO-KJAX

Flight info

Callsign AAL59
Flight time N/A
Altitude 16000
Route WORMS/N0369F150 GUANO MEAAT QUBEN2
Aircraft MD82/M-SDFGIRWY/S

Departure

Time 2026-04-26 17:08
Airport Orlando International Airport (KMCO)

Arrival

Time N/A
Airport Jacksonville International Airport (KJAX)
Time Latitude Longitude Altitude Speed Heading
2026-04-26 16:38 28.42588 -81.31461 98 ft 0 kts 323°
2026-04-26 16:53 28.42573 -81.31448 101 ft 3 kts 322°
2026-04-26 16:53 28.42557 -81.31434 98 ft 3 kts 322°
2026-04-26 16:54 28.42542 -81.31418 100 ft 3 kts 290°
2026-04-26 16:54 28.42540 -81.31398 98 ft 1 kts 261°
2026-04-26 16:59 28.42536 -81.31427 97 ft 6 kts 261°
2026-04-26 17:00 28.42560 -81.31587 101 ft 12 kts 310°
2026-04-26 17:00 28.42719 -81.31654 98 ft 13 kts 349°
2026-04-26 17:00 28.42809 -81.31673 99 ft 13 kts 349°
2026-04-26 17:01 28.42896 -81.31703 101 ft 14 kts 334°
2026-04-26 17:01 28.42966 -81.31781 99 ft 15 kts 307°
2026-04-26 17:01 28.43058 -81.31837 98 ft 16 kts 357°
2026-04-26 17:01 28.43168 -81.31839 112 ft 16 kts 359°
2026-04-26 17:02 28.43285 -81.31842 96 ft 17 kts 359°
2026-04-26 17:02 28.43406 -81.31843 97 ft 17 kts 359°
2026-04-26 17:02 28.43518 -81.31845 101 ft 16 kts 359°
2026-04-26 17:02 28.43624 -81.31847 99 ft 15 kts 359°
2026-04-26 17:03 28.43733 -81.31849 99 ft 16 kts 359°
2026-04-26 17:03 28.43839 -81.31852 101 ft 15 kts 355°
2026-04-26 17:03 28.43936 -81.31868 103 ft 13 kts 349°
2026-04-26 17:03 28.44028 -81.31887 104 ft 14 kts 349°
2026-04-26 17:04 28.44128 -81.31904 102 ft 16 kts 358°
2026-04-26 17:04 28.44242 -81.31907 101 ft 17 kts 358°
2026-04-26 17:04 28.44359 -81.31910 100 ft 17 kts 360°
2026-04-26 17:04 28.44480 -81.31910 101 ft 18 kts 360°
2026-04-26 17:05 28.44614 -81.31910 97 ft 17 kts 360°
2026-04-26 17:05 28.44715 -81.31911 98 ft 12 kts 360°
2026-04-26 17:05 28.44782 -81.31919 99 ft 9 kts 341°
2026-04-26 17:05 28.44825 -81.31971 98 ft 10 kts 287°
2026-04-26 17:06 28.44828 -81.32054 97 ft 11 kts 269°
2026-04-26 17:06 28.44827 -81.32094 97 ft 1 kts 269°
2026-04-26 17:06 28.44827 -81.32109 97 ft 2 kts 269°
2026-04-26 17:06 28.44826 -81.32134 96 ft 4 kts 269°
2026-04-26 17:07 28.44825 -81.32167 95 ft 4 kts 269°
2026-04-26 17:07 28.44825 -81.32200 97 ft 4 kts 264°
2026-04-26 17:07 28.44801 -81.32229 97 ft 8 kts 196°
2026-04-26 17:07 28.44707 -81.32231 97 ft 28 kts 179°
2026-04-26 17:08 28.44308 -81.32226 101 ft 88 kts 179°
2026-04-26 17:08 28.43490 -81.32219 96 ft 145 kts 180°
2026-04-26 17:08 28.42340 -81.32185 299 ft 174 kts 178°
2026-04-26 17:08 28.41316 -81.32119 914 ft 170 kts 178°
2026-04-26 17:09 28.40019 -81.31983 1108 ft 201 kts 180°
2026-04-26 17:09 28.39085 -81.32091 1458 ft 208 kts 200°
2026-04-26 17:09 28.37284 -81.33072 2155 ft 221 kts 212°
2026-04-26 17:09 28.35926 -81.33934 2747 ft 226 kts 212°
2026-04-26 17:10 28.34544 -81.34833 3269 ft 231 kts 212°
2026-04-26 17:10 28.33183 -81.35830 3804 ft 234 kts 225°
2026-04-26 17:10 28.32249 -81.37328 4307 ft 237 kts 251°
2026-04-26 17:10 28.32031 -81.39186 4737 ft 244 kts 277°
2026-04-26 17:11 28.32648 -81.41010 5243 ft 253 kts 307°
2026-04-26 17:11 28.34037 -81.42197 5877 ft 260 kts 338°
2026-04-26 17:11 28.35836 -81.42489 6548 ft 266 kts 359°
2026-04-26 17:11 28.37700 -81.42377 7144 ft 269 kts
2026-04-26 17:12 28.41473 -81.42022 8403 ft 273 kts
2026-04-26 17:12 28.43379 -81.41860 8964 ft 276 kts 355°
2026-04-26 17:13 28.47183 -81.42475 10198 ft 277 kts 347°
2026-04-26 17:13 28.49100 -81.42865 10647 ft 286 kts 347°
2026-04-26 17:13 28.53251 -81.43700 11036 ft 319 kts 348°
2026-04-26 17:14 28.55495 -81.44131 11229 ft 335 kts 348°
2026-04-26 17:14 28.60269 -81.44986 11877 ft 354 kts 349°
2026-04-26 17:14 28.62709 -81.45398 12418 ft 355 kts 349°
2026-04-26 17:15 28.67637 -81.46213 12870 ft 357 kts 349°
2026-04-26 17:15 28.70094 -81.46621 12947 ft 357 kts 349°
2026-04-26 17:15 28.72561 -81.47037 12974 ft 359 kts 349°
2026-04-26 17:16 28.75034 -81.47452 12983 ft 358 kts 349°
2026-04-26 17:16 28.77463 -81.47861 12991 ft 357 kts 349°
2026-04-26 17:16 28.79921 -81.48275 12995 ft 357 kts 349°
2026-04-26 17:16 28.82368 -81.48688 13247 ft 355 kts 349°
2026-04-26 17:17 28.84821 -81.49103 13509 ft 358 kts 349°
2026-04-26 17:17 28.87292 -81.49523 13760 ft 360 kts 349°
2026-04-26 17:17 28.89769 -81.49945 14001 ft 361 kts 349°
2026-04-26 17:17 28.92226 -81.50363 14221 ft 362 kts 349°
2026-04-26 17:18 28.94724 -81.50787 14453 ft 364 kts 349°
2026-04-26 17:18 28.97233 -81.51213 14678 ft 366 kts 349°
2026-04-26 17:18 28.99767 -81.51643 14770 ft 367 kts 349°
2026-04-26 17:18 29.02296 -81.52072 14889 ft 368 kts 349°
2026-04-26 17:19 29.07366 -81.52933 15031 ft 370 kts 349°
2026-04-26 17:19 29.09860 -81.53356 15018 ft 355 kts 349°
2026-04-26 17:19 29.12306 -81.53770 15018 ft 360 kts 349°
2026-04-26 17:20 29.14805 -81.54199 15022 ft 377 kts 349°
2026-04-26 17:20 29.15690 -81.54352 15021 ft 382 kts 349°
2026-04-26 17:20 29.20085 -81.55105 14919 ft 375 kts 349°
2026-04-26 17:20 29.22607 -81.55531 14706 ft 359 kts 349°
2026-04-26 17:21 29.25036 -81.55940 14483 ft 345 kts 349°
2026-04-26 17:21 29.27371 -81.56336 14281 ft 335 kts 349°